This demonstration page uses our WeatherBlox Daily Observations layout. Learn more.

Left ArrowRight Arrow

Hourly Observations for December 1, 2019

Temp ( °F °C ) Dew Point ( °F °C ) Humidity (%) Winds ( mph kmh ) Pressure ( in mb ) Visibility ( mi km ) Precip ( " mm )
12:43 am 00:43 Cloudy with Light Rain 37 2.8 35 1.7 93 93 NW 21 33 29.44 997 6 10 0.01 0.25
12:52 am 00:52 Cloudy with Light Rain 37 2.8 35 1.7 93 93 NNW 26 43 29.38 995 5 8 0.02 0.51
1:39 am 01:39 Windy with Snow Likely 35 1.7 32 0 89 89 NW 31 50 29.47 998 7 11 0.00 0.00
1:48 am 01:48 Windy with Snow Likely 36 2 32 0 87 87 NW 29 46 29.50 999 7 11 0.00 0.00
1:52 am 01:52 Windy with Snow Likely 35 1.7 32 0 89 89 NW 25 41 29.44 997 7 11 0.00 0.00
2:52 am 02:52 Windy with Snow Likely 34 1.1 30 -1.1 85 85 NW 25 41 29.51 999 10 16 0.00 0.00
3:52 am 03:52 Windy with Snow Likely 33 0.6 28 -2.2 82 82 NW 25 41 29.57 1001 7 11 0.00 0.00
4:52 am 04:52 Windy with Snow Likely 32 0 28 -2.2 85 85 NW 31 50 29.62 1003 7 11 0.00 0.00
5:52 am 05:52 Windy with Snow Likely 31 -0.6 26 -3.3 82 82 NW 26 43 29.65 1004 7 11 0.00 0.00
6:52 am 06:52 Windy with Snow Likely 30 -1.1 25 -3.9 82 82 NW 26 43 29.70 1006 9 14 0.00 0.00
7:52 am 07:52 Cloudy 30 -1.1 24 -4.4 79 79 NNW 21 33 29.74 1007 10 16 0.00 0.00
8:52 am 08:52 Cloudy 29 -1.7 23 -5 78 78 NW 30 48 29.80 1009 10 16 0.00 0.00
9:52 am 09:52 Mostly Cloudy 30 -1.1 23 -5 75 75 NW 30 48 29.82 1010 10 16 0.00 0.00
10:52 am 10:52 Cloudy 30 -1.1 23 -5 75 75 NNW 25 41 29.87 1012 10 16 0.00 0.00
11:52 am 11:52 Cloudy 30 -1.1 22 -5.6 72 72 NW 25 41 29.90 1013 10 16 0.00 0.00
12:52 pm 12:52 Cloudy 30 -1.1 22 -5.6 72 72 NW 23 37 29.92 1013 10 16 0.00 0.00
1:52 pm 13:52 Cloudy 30 -1.1 22 -5.6 72 72 NNW 26 43 29.94 1014 10 16 0.00 0.00
2:52 pm 14:52 Cloudy 29 -1.7 23 -5 78 78 NNW 20 31 29.98 1015 10 16 0.00 0.00
3:52 pm 15:52 Cloudy 29 -1.7 23 -5 78 78 NNW 25 41 30.03 1017 10 16 0.00 0.00
4:52 pm 16:52 Cloudy 29 -1.7 23 -5 78 78 NW 21 33 30.07 1018 10 16 0.00 0.00
5:52 pm 17:52 Cloudy 29 -1.7 23 -5 78 78 NNW 20 31 30.10 1019 10 16 0.00 0.00
6:52 pm 18:52 Cloudy 29 -1.7 23 -5 78 78 NNW 21 33 30.13 1020 10 16 0.00 0.00
7:52 pm 19:52 Cloudy 28 -2.2 21 -6.1 75 75 NNW 21 33 30.14 1021 10 16 0.00 0.00
8:52 pm 20:52 Partly Cloudy 26 -3.3 19 -7.2 75 75 NNW 20 31 30.15 1021 10 16 0.00 0.00
9:52 pm 21:52 Mostly Clear 25 -3.9 18 -7.8 75 75 NW 16 26 30.19 1022 10 16 0.00 0.00
10:52 pm 22:52 Mostly Clear 24 -4.4 18 -7.8 77 77 NW 17 28 30.19 1023 10 16 0.00 0.00
11:52 pm 23:52 Mostly Clear 24 -4.4 17 -8.3 75 75 N 12 19 30.21 1023 10 16 0.00 0.00

Powered by AerisWeather